TimeCST,TemperatureF,Dew PointF,Humidity,Sea Level PressureIn,VisibilityMPH,Wind Direction,Wind SpeedMPH,Gust SpeedMPH,PrecipitationIn,Events,Conditions,WindDirDegrees,DateUTC
12:53 AM,36.0,26.1,67,30.33,10.0,NNE,4.6,-,N/A,,Clear,20,2013-01-07 06:53:00
1:53 AM,35.1,25.0,67,30.30,10.0,North,3.5,-,N/A,,Clear,10,2013-01-07 07:53:00
2:53 AM,32.0,25.0,75,30.31,10.0,NNE,3.5,-,N/A,,Clear,30,2013-01-07 08:53:00
3:53 AM,36.0,25.0,64,30.30,10.0,NNE,4.6,-,N/A,,Clear,30,2013-01-07 09:53:00
4:53 AM,37.9,25.0,60,30.29,10.0,NE,4.6,-,N/A,,Clear,40,2013-01-07 10:53:00
5:53 AM,37.9,25.0,60,30.29,10.0,Calm,Calm,-,N/A,,Clear,0,2013-01-07 11:53:00
6:53 AM,36.0,25.0,64,30.29,10.0,NE,4.6,-,N/A,,Clear,50,2013-01-07 12:53:00
7:53 AM,36.0,25.0,64,30.29,10.0,ENE,4.6,-,N/A,,Clear,60,2013-01-07 13:53:00
8:53 AM,39.9,27.0,60,30.31,10.0,East,6.9,-,N/A,,Clear,100,2013-01-07 14:53:00
9:53 AM,44.1,30.0,58,30.31,10.0,SE,4.6,-,N/A,,Clear,140,2013-01-07 15:53:00
10:53 AM,46.9,32.0,56,30.32,10.0,South,5.8,-,N/A,,Clear,180,2013-01-07 16:53:00
11:53 AM,50.0,32.0,50,30.26,10.0,ESE,9.2,-,N/A,,Clear,110,2013-01-07 17:53:00
1:53 PM,52.0,32.0,47,30.17,10.0,ESE,6.9,-,N/A,,Clear,110,2013-01-07 19:53:00
2:53 PM,54.0,30.9,41,30.15,10.0,ESE,9.2,-,N/A,,Clear,120,2013-01-07 20:53:00
3:53 PM,53.1,30.9,43,30.15,10.0,ESE,4.6,-,N/A,,Partly Cloudy,110,2013-01-07 21:53:00
5:53 PM,50.0,32.0,50,30.13,10.0,East,5.8,-,N/A,,Mostly Cloudy,90,2013-01-07 23:53:00
6:53 PM,48.9,34.0,56,30.11,10.0,East,5.8,-,N/A,,Mostly Cloudy,100,2013-01-08 00:53:00
7:53 PM,48.9,34.0,56,30.14,10.0,Calm,Calm,-,N/A,,Overcast,0,2013-01-08 01:53:00
8:53 PM,48.0,34.0,58,30.13,10.0,East,3.5,-,N/A,,Overcast,100,2013-01-08 02:53:00
9:53 PM,46.9,35.1,63,30.11,10.0,East,4.6,-,N/A,,Mostly Cloudy,80,2013-01-08 03:53:00
10:53 PM,46.9,36.0,66,30.09,10.0,ENE,5.8,-,N/A,,Overcast,70,2013-01-08 04:53:00
11:53 PM,48.0,37.0,66,30.07,10.0,East,5.8,-,N/A,,Overcast,90,2013-01-08 05:53:00